THOR ABLESTAR R/B

基本信息
目录编号:
59
目录名称:
THOR ABLESTAR R/B
国际标识:
1960-013B
轨道中心:
EARTH
物体状态:
在轨
发射日期:
1960-10-04 UTC
国别:
美国 (US)
轨道信息
数据来源: 国际轨道数据
星历时间: 2026-09-05T07:09:02+0800
半长轴: 7438.736km
偏心率: 0.0188956
轨道倾角: 28.250°
近地点辐角: 265.685°
升交点赤经: 73.585°
平近点角: 92.208°
近地点: 920.039km
远地点: 1201.159km
周期: 106.416分钟
每日圈数: 13.531754
详细信息
发射场:
AFETR
轨道高度:
LEO
数据来源:
AOE Integration Group
参考系:
TEME
时间系统:
UTC
历元类型:
SGP4
2D轨道图
3D轨道图
轨道高度分析图
轨道倾角分析图
轨道综合分析图
查看轨道综合分析图